Total_Precipitation_Accumulation
0.01 0.07 0.23 0.51 1.15 1.49 1.28 0.70 0.53 0.42 0.42 0.43 0.45 0.43 0.45 0.49 0.77 1.11 0.68 0.36 0.13 0.03 0.03 0.12 0.24 0.23 0.20 0.18 0.18 0.19 0.19 0.18 0.16 0.14 0.11 0.10 0.10 0.09 0.10 0.10 0.10 0.12 0.15 0.17 0.20 0.22 0.20 0.21 0.25
0.04 0.11 0.31 0.78 1.45 1.48 1.09 0.59 0.44 0.35 0.39 0.39 0.36 0.40 0.52 0.57 0.45 0.44 0.47 0.36 0.13 0.05 0.03 0.05 0.16 0.22 0.21 0.20 0.19 0.20 0.19 0.18 0.16 0.14 0.12 0.11 0.11 0.10 0.11 0.12 0.13 0.15 0.17 0.19 0.21 0.19 0.19 0.22 0.25
0.07 0.14 0.35 0.80 0.97 0.95 0.75 0.47 0.38 0.31 0.42 0.58 0.49 0.41 0.53 0.67 0.49 0.40 0.37 0.22 0.12 0.08 0.06 0.08 0.14 0.17 0.20 0.20 0.21 0.20 0.19 0.18 0.16 0.15 0.13 0.13 0.13 0.15 0.15 0.14 0.16 0.19 0.20 0.22 0.22 0.18 0.20 0.18 0.18
0.07 0.20 0.39 0.52 0.40 0.36 0.38 0.38 0.36 0.40 0.62 0.78 0.64 0.52 0.55 0.52 0.49 0.41 0.32 0.21 0.15 0.11 0.11 0.13 0.17 0.18 0.19 0.19 0.21 0.21 0.18 0.16 0.15 0.15 0.15 0.16 0.18 0.20 0.17 0.17 0.20 0.20 0.22 0.25 0.27 0.21 0.20 0.19 0.19
0.07 0.26 0.50 0.37 0.22 0.22 0.23 0.28 0.42 0.48 0.73 0.81 0.60 0.62 0.68 0.58 0.56 0.53 0.38 0.32 0.30 0.31 0.28 0.26 0.27 0.24 0.22 0.21 0.21 0.23 0.21 0.19 0.17 0.16 0.17 0.19 0.21 0.23 0.23 0.23 0.25 0.23 0.23 0.28 0.31 0.27 0.22 0.25 0.28
0.06 0.19 0.32 0.23 0.14 0.13 0.16 0.23 0.37 0.51 0.72 0.79 0.63 0.81 0.84 0.81 0.76 0.73 0.69 0.69 0.63 0.68 0.61 0.51 0.48 0.38 0.31 0.27 0.27 0.27 0.26 0.23 0.22 0.21 0.21 0.22 0.23 0.24 0.27 0.28 0.30 0.29 0.30 0.32 0.32 0.27 0.28 0.33 0.38
0.03 0.13 0.19 0.13 0.08 0.09 0.17 0.23 0.40 0.56 0.72 0.94 0.90 0.98 0.97 1.05 1.01 0.93 0.94 0.97 0.99 0.96 0.90 0.68 0.53 0.48 0.42 0.43 0.38 0.34 0.32 0.30 0.29 0.28 0.25 0.25 0.25 0.24 0.26 0.32 0.34 0.34 0.34 0.37 0.36 0.34 0.36 0.40 0.40
0.02 0.05 0.09 0.07 0.04 0.06 0.13 0.24 0.38 0.54 0.79 0.93 0.94 1.01 1.01 0.97 1.03 1.11 1.15 1.26 1.43 1.26 1.10 0.81 0.64 0.64 0.54 0.48 0.45 0.41 0.37 0.34 0.33 0.33 0.33 0.34 0.33 0.31 0.35 0.38 0.42 0.41 0.39 0.38 0.41 0.43 0.45 0.47 0.45
0.01 0.02 0.04 0.04 0.02 0.04 0.13 0.30 0.43 0.47 0.62 0.92 1.17 1.02 0.85 0.92 1.19 1.33 1.53 1.59 1.74 1.65 1.24 0.87 0.80 0.90 0.78 0.59 0.53 0.59 0.54 0.52 0.52 0.56 0.54 0.64 0.79 0.76 0.79 0.65 0.64 0.63 0.66 0.67 0.69 0.70 0.73 0.70 0.56
0.00 0.02 0.03 0.02 0.01 0.03 0.14 0.36 0.51 0.60 0.88 1.21 1.43 1.24 1.00 0.97 1.36 1.64 1.70 1.69 1.50 1.61 1.55 1.18 0.99 0.96 0.88 0.74 0.72 0.99 1.01 1.02 1.08 1.17 1.12 1.26 1.27 1.12 0.86 0.84 0.99 0.99 1.13 1.24 1.38 1.47 1.29 1.06 0.90
0.00 0.01 0.01 0.02 0.01 0.05 0.18 0.21 0.29 0.54 1.10 1.49 1.74 1.36 1.09 1.12 1.43 1.86 1.93 1.81 1.56 1.59 1.50 1.47 1.24 1.10 1.05 1.10 1.03 1.15 1.30 1.41 1.51 1.46 1.50 1.65 1.42 1.19 1.05 1.17 1.41 1.46 1.57 1.69 1.94 2.07 1.56 1.57 1.82
0.00 0.00 0.01 0.01 0.01 0.03 0.10 0.19 0.33 0.63 1.11 1.38 1.28 1.13 1.11 1.27 1.45 1.95 2.18 1.96 1.80 1.74 1.68 1.88 1.75 1.60 1.54 1.43 1.41 1.25 1.21 1.29 1.42 1.49 1.51 1.64 1.59 1.46 1.47 1.52 1.56 1.74 1.91 2.15 2.10 2.23 2.24 2.34 2.24
0.00 0.00 0.01 0.01 0.02 0.03 0.08 0.19 0.30 0.53 0.82 0.88 0.79 0.95 1.34 1.40 1.60 2.09 2.57 2.48 2.28 2.12 2.16 2.32 2.29 2.35 2.23 1.93 1.71 1.37 1.29 1.25 1.27 1.36 1.38 1.59 1.81 1.79 1.87 1.67 1.65 1.47 1.73 2.09 2.30 2.35 2.58 2.71 2.66
0.00 0.01 0.01 0.02 0.04 0.05 0.08 0.16 0.32 0.70 0.72 0.67 0.80 1.09 1.40 1.71 1.76 2.11 2.70 2.81 2.70 2.69 2.84 2.86 2.86 2.80 2.65 2.20 1.92 1.69 1.42 1.39 1.33 1.37 1.47 1.89 2.07 1.95 1.99 1.91 1.81 1.58 1.69 2.00 2.34 2.42 2.69 2.68 2.74
0.01 0.03 0.08 0.09 0.07 0.08 0.11 0.34 0.58 0.76 0.73 0.74 0.96 1.17 1.58 2.05 2.16 2.35 2.74 2.95 3.09 3.34 3.50 3.62 3.54 3.20 3.08 2.69 2.17 1.83 1.54 1.34 1.39 1.56 1.70 1.98 2.13 2.20 2.32 2.23 1.89 1.72 1.86 2.03 2.04 2.17 2.63 2.49 2.49
0.02 0.06 0.23 0.17 0.09 0.09 0.17 0.56 0.77 0.80 0.83 0.89 1.10 1.42 1.72 2.13 2.13 2.28 2.58 3.02 3.42 3.89 4.25 4.34 4.06 3.86 3.69 3.21 2.72 2.34 2.08 1.84 1.83 1.85 1.76 1.69 1.89 2.03 2.13 1.86 1.51 1.66 1.91 2.04 1.97 1.98 2.34 2.40 2.44
0.05 0.09 0.18 0.18 0.12 0.11 0.20 0.57 0.62 0.53 0.86 1.21 1.41 1.59 1.71 1.85 1.94 2.13 2.42 2.95 3.51 4.15 4.78 5.01 5.06 4.55 4.03 3.37 2.89 2.46 2.32 2.14 1.98 1.80 1.61 1.42 1.31 1.30 1.39 1.25 1.18 1.33 1.58 1.60 1.43 1.57 1.84 1.98 2.12
0.04 0.08 0.14 0.19 0.16 0.16 0.27 0.51 0.64 0.55 0.82 1.12 1.18 1.47 1.57 1.56 1.75 2.11 2.60 2.98 3.64 4.28 4.87 5.12 5.17 4.61 3.83 3.33 3.10 2.76 2.43 2.18 1.93 1.63 1.38 1.13 1.05 0.96 1.02 1.01 0.93 0.98 1.04 1.09 1.24 1.43 1.56 1.49 1.59
0.03 0.07 0.15 0.17 0.16 0.23 0.37 0.62 0.75 0.72 0.75 0.86 0.99 1.18 1.22 1.26 1.53 1.97 2.59 3.15 3.77 4.65 5.16 5.20 4.82 4.01 3.37 2.82 2.55 2.31 2.09 1.89 1.61 1.32 1.10 0.97 0.93 0.83 0.85 0.81 0.81 0.82 0.80 0.82 0.97 1.09 1.13 0.98 1.16
0.05 0.09 0.17 0.16 0.12 0.14 0.34 0.65 0.74 0.80 0.85 0.83 0.88 0.98 0.91 1.03 1.36 1.98 2.73 3.43 3.90 4.27 4.52 4.45 3.90 3.10 2.59 2.22 2.12 1.94 1.75 1.43 1.26 1.10 0.99 0.85 0.78 0.72 0.69 0.73 0.67 0.63 0.69 0.70 0.74 0.85 0.88 0.80 0.90
0.08 0.09 0.14 0.17 0.13 0.15 0.35 0.76 0.88 0.86 0.84 0.82 0.69 0.69 0.80 1.00 1.57 2.31 3.08 3.66 3.75 3.65 3.35 2.98 2.66 2.26 2.10 1.99 1.81 1.63 1.55 1.30 1.08 0.86 0.75 0.66 0.58 0.52 0.50 0.49 0.48 0.50 0.52 0.56 0.62 0.70 0.76 0.72 0.67
0.09 0.07 0.05 0.07 0.11 0.32 0.45 0.87 0.95 0.96 0.93 0.77 0.67 0.72 0.87 1.13 1.68 2.38 2.91 3.00 2.98 2.74 2.35 2.11 2.00 1.89 1.78 1.68 1.55 1.28 1.08 1.03 0.88 0.73 0.66 0.59 0.49 0.45 0.42 0.39 0.39 0.38 0.37 0.46 0.44 0.53 0.65 0.68 0.58
0.05 0.04 0.04 0.08 0.18 0.34 0.47 0.74 0.98 0.96 1.06 0.68 0.50 0.59 0.72 0.96 1.24 1.45 1.63 1.67 1.72 1.64 1.70 1.75 1.80 1.80 1.71 1.61 1.49 1.32 1.06 1.00 0.95 0.88 0.81 0.72 0.61 0.50 0.44 0.43 0.39 0.37 0.33 0.35 0.37 0.47 0.56 0.63 0.58
0.04 0.06 0.12 0.21 0.36 0.70 0.69 0.80 1.08 1.04 0.89 0.49 0.30 0.36 0.55 0.69 0.75 0.82 0.86 0.88 1.06 1.07 1.17 1.30 1.35 1.48 1.55 1.48 1.31 1.19 1.05 1.00 0.97 0.86 0.73 0.63 0.57 0.53 0.48 0.47 0.48 0.43 0.40 0.39 0.38 0.41 0.45 0.57 0.65
0.05 0.09 0.31 0.63 0.98 1.03 0.61 0.70 1.06 0.98 0.64 0.35 0.22 0.19 0.26 0.41 0.58 0.69 0.74 0.78 0.89 0.82 0.86 0.98 1.04 1.06 1.13 1.12 1.04 0.99 1.00 0.96 0.89 0.77 0.66 0.56 0.44 0.42 0.42 0.42 0.44 0.46 0.47 0.46 0.45 0.45 0.44 0.49 0.58
0.06 0.07 0.18 0.35 0.45 0.60 0.63 1.09 1.28 0.70 0.39 0.23 0.16 0.13 0.17 0.28 0.44 0.52 0.50 0.56 0.63 0.59 0.63 0.75 0.85 0.85 0.86 0.88 0.87 0.84 0.88 0.79 0.74 0.78 0.68 0.58 0.48 0.42 0.40 0.39 0.39 0.42 0.47 0.49 0.54 0.50 0.50 0.51 0.52
0.06 0.05 0.07 0.09 0.16 0.42 0.77 1.08 0.96 0.54 0.37 0.21 0.16 0.14 0.15 0.20 0.30 0.36 0.31 0.33 0.42 0.48 0.52 0.60 0.72 0.77 0.74 0.77 0.78 0.72 0.76 0.77 0.75 0.72 0.64 0.56 0.58 0.50 0.47 0.44 0.47 0.50 0.53 0.55 0.59 0.56 0.54 0.54 0.52
0.06 0.06 0.07 0.10 0.18 0.37 0.67 1.05 1.17 0.82 0.43 0.24 0.22 0.22 0.20 0.19 0.22 0.22 0.23 0.24 0.28 0.38 0.49 0.57 0.65 0.71 0.69 0.70 0.70 0.60 0.68 0.75 0.81 0.74 0.64 0.60 0.63 0.56 0.56 0.54 0.53 0.56 0.57 0.57 0.61 0.60 0.64 0.66 0.66
0.09 0.08 0.10 0.10 0.11 0.21 0.50 0.74 0.60 0.56 0.36 0.30 0.28 0.25 0.22 0.20 0.21 0.19 0.17 0.17 0.20 0.27 0.40 0.50 0.61 0.67 0.68 0.67 0.71 0.76 0.74 0.67 0.74 0.75 0.74 0.74 0.77 0.67 0.66 0.66 0.67 0.67 0.68 0.70 0.74 0.74 0.77 0.82 0.91
0.11 0.11 0.12 0.13 0.12 0.12 0.26 0.38 0.36 0.50 0.45 0.37 0.32 0.31 0.31 0.21 0.18 0.19 0.19 0.17 0.20 0.23 0.30 0.38 0.47 0.58 0.62 0.64 0.72 0.77 0.80 0.71 0.73 0.75 0.79 0.81 0.87 0.92 0.86 0.80 0.78 0.73 0.74 0.81 0.84 0.87 0.83 0.83 0.88